OCN1225 LPPT-LPMA

Flight info

Callsign OCN1225
Flight time 1h 31m
Altitude 33000
Route ULVOT DCT GALPA DCT RAKUN
Aircraft A320/M-SDE3FGHIRWY/LB1

Departure

Time 2026-05-07 16:56
Airport Lisbon Humberto Delgado Airport (LPPT)

Arrival

Time 2026-05-07 18:27
Airport Cristiano Ronaldo International Airport (LPMA)
Time Latitude Longitude Altitude Speed Heading
2026-05-07 16:35 38.76947 -9.13613 351 ft 0 kts 261°
2026-05-07 16:45 38.76950 -9.13594 353 ft 2 kts 250°
2026-05-07 16:46 38.76956 -9.13573 350 ft 2 kts 250°
2026-05-07 16:46 38.76962 -9.13553 357 ft 2 kts 250°
2026-05-07 16:46 38.76967 -9.13533 351 ft 2 kts 221°
2026-05-07 16:46 38.76982 -9.13523 352 ft 2 kts 184°
2026-05-07 16:47 38.76987 -9.13523 350 ft 0 kts 170°
2026-05-07 16:49 38.76968 -9.13517 357 ft 12 kts 167°
2026-05-07 16:49 38.76882 -9.13491 350 ft 12 kts 167°
2026-05-07 16:49 38.76806 -9.13468 351 ft 10 kts 167°
2026-05-07 16:49 38.76740 -9.13449 347 ft 9 kts 168°
2026-05-07 16:50 38.76684 -9.13441 347 ft 7 kts 191°
2026-05-07 16:50 38.76657 -9.13481 348 ft 5 kts 251°
2026-05-07 16:50 38.76644 -9.13547 356 ft 12 kts 257°
2026-05-07 16:50 38.76625 -9.13659 350 ft 13 kts 257°
2026-05-07 16:51 38.76608 -9.13770 347 ft 12 kts 259°
2026-05-07 16:51 38.76592 -9.13875 347 ft 13 kts 257°
2026-05-07 16:51 38.76579 -9.13948 349 ft 9 kts 258°
2026-05-07 16:51 38.76565 -9.14033 350 ft 11 kts 259°
2026-05-07 16:52 38.76561 -9.14131 349 ft 12 kts 284°
2026-05-07 16:52 38.76551 -9.14210 356 ft 11 kts 211°
2026-05-07 16:52 38.76532 -9.14231 351 ft 0 kts 231°
2026-05-07 16:53 38.76528 -9.14239 353 ft 5 kts 239°
2026-05-07 16:53 38.76534 -9.14293 348 ft 0 kts 293°
2026-05-07 16:54 38.76534 -9.14294 348 ft 1 kts 293°
2026-05-07 16:54 38.76553 -9.14350 337 ft 14 kts 293°
2026-05-07 16:54 38.76635 -9.14395 336 ft 15 kts 19°
2026-05-07 16:54 38.76651 -9.14387 337 ft 0 kts 21°
2026-05-07 16:55 38.76669 -9.14378 337 ft 15 kts 21°
2026-05-07 16:55 38.77043 -9.14217 352 ft 98 kts 17°
2026-05-07 16:55 38.77878 -9.13733 350 ft 163 kts 24°
2026-05-07 16:55 38.78997 -9.13106 885 ft 178 kts 19°
2026-05-07 16:56 38.80174 -9.12433 1596 ft 189 kts 18°
2026-05-07 16:56 38.81410 -9.11746 2146 ft 193 kts 21°
2026-05-07 16:56 38.83694 -9.10042 3420 ft 194 kts 26°
2026-05-07 16:57 38.84866 -9.09150 3939 ft 198 kts 28°
2026-05-07 16:57 38.86058 -9.08239 4498 ft 200 kts 30°
2026-05-07 16:57 38.87270 -9.07301 4914 ft 206 kts 34°
2026-05-07 16:57 38.88270 -9.05944 5159 ft 219 kts 66°
2026-05-07 16:58 38.88582 -9.04026 5413 ft 229 kts 99°
2026-05-07 16:58 38.88065 -9.02126 6023 ft 231 kts 122°
2026-05-07 16:58 38.87240 -9.00237 6368 ft 253 kts 123°
2026-05-07 16:58 38.86201 -8.98426 7074 ft 252 kts 140°
2026-05-07 16:59 38.84728 -8.97235 7832 ft 252 kts 162°
2026-05-07 16:59 38.83082 -8.96849 8548 ft 254 kts 182°
2026-05-07 16:59 38.81414 -8.97259 9278 ft 257 kts 201°
2026-05-07 16:59 38.79723 -8.98167 9848 ft 270 kts 202°
2026-05-07 17:00 38.77951 -8.99122 10265 ft 286 kts 202°
2026-05-07 17:00 38.76068 -9.00133 10468 ft 308 kts 202°
2026-05-07 17:00 38.74055 -9.01215 10985 ft 317 kts 202°
2026-05-07 17:00 38.71998 -9.02316 11645 ft 322 kts 202°
2026-05-07 17:01 38.69909 -9.03431 12303 ft 328 kts 202°
2026-05-07 17:01 38.67793 -9.04560 12989 ft 331 kts 202°
2026-05-07 17:01 38.65655 -9.05700 13699 ft 333 kts 202°
2026-05-07 17:01 38.63494 -9.06853 14244 ft 338 kts 202°
2026-05-07 17:02 38.61307 -9.08023 14818 ft 342 kts 202°
2026-05-07 17:02 38.59102 -9.09202 15457 ft 345 kts 202°
2026-05-07 17:02 38.56887 -9.10385 16110 ft 346 kts 202°
2026-05-07 17:02 38.54662 -9.11576 16744 ft 348 kts 202°
2026-05-07 17:03 38.52447 -9.12759 17360 ft 349 kts 203°
2026-05-07 17:03 38.50201 -9.13957 17990 ft 351 kts 203°
2026-05-07 17:03 38.47974 -9.15260 18530 ft 353 kts 211°
2026-05-07 17:03 38.46093 -9.17274 19026 ft 356 kts 227°
2026-05-07 17:04 38.44461 -9.19660 19556 ft 357 kts 228°
2026-05-07 17:04 38.42840 -9.22069 20083 ft 359 kts 229°
2026-05-07 17:04 38.41235 -9.24476 20600 ft 360 kts 229°
2026-05-07 17:04 38.39650 -9.26858 21090 ft 362 kts 229°
2026-05-07 17:05 38.38015 -9.29307 21588 ft 363 kts 229°
2026-05-07 17:05 38.36374 -9.31760 22092 ft 365 kts 229°
2026-05-07 17:05 38.34719 -9.34226 22572 ft 367 kts 229°
2026-05-07 17:05 38.33053 -9.36697 23044 ft 368 kts 229°
2026-05-07 17:06 38.31380 -9.39172 23517 ft 370 kts 229°
2026-05-07 17:06 38.29692 -9.41669 23835 ft 372 kts 229°
2026-05-07 17:06 38.28005 -9.44164 23913 ft 372 kts 230°
2026-05-07 17:06 38.26338 -9.46632 23928 ft 373 kts 229°
2026-05-07 17:07 38.24643 -9.49142 23935 ft 375 kts 229°
2026-05-07 17:07 38.22935 -9.51667 23937 ft 376 kts 229°
2026-05-07 17:07 38.21228 -9.54192 23936 ft 376 kts 229°
2026-05-07 17:07 38.19521 -9.56714 23939 ft 376 kts 229°
2026-05-07 17:08 38.17811 -9.59236 24130 ft 379 kts 229°
2026-05-07 17:08 38.16087 -9.61770 24537 ft 380 kts 229°
2026-05-07 17:08 38.14351 -9.64316 24929 ft 381 kts 229°
2026-05-07 17:08 38.12614 -9.66863 25290 ft 383 kts 229°
2026-05-07 17:09 38.10863 -9.69431 25650 ft 384 kts 229°
2026-05-07 17:09 38.09112 -9.72002 26015 ft 386 kts 229°
2026-05-07 17:09 38.07355 -9.74586 26370 ft 387 kts 229°
2026-05-07 17:09 38.05612 -9.77146 26718 ft 389 kts 229°
2026-05-07 17:10 38.03834 -9.79752 27064 ft 391 kts 229°
2026-05-07 17:10 38.03290 -9.80548 27170 ft 391 kts 229°
2026-05-07 17:10 38.01506 -9.83167 27498 ft 393 kts 229°
2026-05-07 17:10 37.99714 -9.85789 27885 ft 394 kts 229°
2026-05-07 17:11 37.97914 -9.88414 28222 ft 395 kts 229°
2026-05-07 17:11 37.96106 -9.91050 28563 ft 397 kts 229°
2026-05-07 17:11 37.94288 -9.93697 28889 ft 398 kts 229°
2026-05-07 17:11 37.92476 -9.96336 29220 ft 400 kts 229°
2026-05-07 17:12 37.90648 -9.98997 29526 ft 401 kts 229°
2026-05-07 17:12 37.88833 -10.01636 29825 ft 403 kts 229°
2026-05-07 17:12 37.86988 -10.04314 30100 ft 404 kts 229°
2026-05-07 17:12 37.85137 -10.06999 30352 ft 405 kts 229°
2026-05-07 17:13 37.83287 -10.09686 30612 ft 406 kts 229°
2026-05-07 17:13 37.81432 -10.12381 30873 ft 407 kts 229°
2026-05-07 17:13 37.79580 -10.15074 31219 ft 405 kts 229°
2026-05-07 17:13 37.77733 -10.17752 31606 ft 402 kts 229°
2026-05-07 17:14 37.75902 -10.20399 32005 ft 400 kts 229°
2026-05-07 17:14 37.74072 -10.23034 32394 ft 397 kts 229°
2026-05-07 17:14 37.72261 -10.25642 32798 ft 394 kts 229°
2026-05-07 17:14 37.70455 -10.28247 32931 ft 395 kts 229°
2026-05-07 17:15 37.66783 -10.33554 32958 ft 407 kts 229°
2026-05-07 17:15 37.63003 -10.39001 32951 ft 416 kts 229°
2026-05-07 17:16 37.59171 -10.44498 32951 ft 418 kts 229°
2026-05-07 17:16 37.55322 -10.50000 32956 ft 418 kts 229°
2026-05-07 17:17 37.51481 -10.55495 32953 ft 418 kts 229°
2026-05-07 17:17 37.47668 -10.60947 32974 ft 417 kts 228°
2026-05-07 17:18 37.43837 -10.66420 32973 ft 416 kts 228°
2026-05-07 17:18 37.40014 -10.71869 32972 ft 414 kts 228°
2026-05-07 17:19 37.36210 -10.77269 32958 ft 414 kts 228°
2026-05-07 17:19 37.32390 -10.82685 32956 ft 414 kts 228°
2026-05-07 17:20 37.28568 -10.88111 32950 ft 414 kts 228°
2026-05-07 17:20 37.24753 -10.93520 32951 ft 414 kts 228°
2026-05-07 17:21 37.20924 -10.98921 32971 ft 414 kts 227°
2026-05-07 17:21 37.17097 -11.04306 32960 ft 413 kts 227°
2026-05-07 17:22 37.13299 -11.09649 32963 ft 413 kts 227°
2026-05-07 17:22 37.09475 -11.15022 32952 ft 413 kts 227°
2026-05-07 17:23 37.05651 -11.20390 32960 ft 413 kts 227°
2026-05-07 17:23 37.01822 -11.25755 32969 ft 413 kts 227°
2026-05-07 17:24 36.97997 -11.31110 32977 ft 413 kts 227°
2026-05-07 17:24 36.94170 -11.36458 32999 ft 412 kts 226°
2026-05-07 17:25 36.90352 -11.41783 32968 ft 411 kts 226°
2026-05-07 17:25 36.86559 -11.47058 32975 ft 410 kts 226°
2026-05-07 17:26 36.82746 -11.52356 32969 ft 410 kts 226°
2026-05-07 17:26 36.78933 -11.57649 32966 ft 410 kts 226°
2026-05-07 17:27 36.75121 -11.62932 32964 ft 409 kts 226°
2026-05-07 17:27 36.71300 -11.68204 32955 ft 410 kts 226°
2026-05-07 17:28 36.67522 -11.73419 32956 ft 410 kts 226°
2026-05-07 17:28 36.63704 -11.78688 32952 ft 410 kts 226°
2026-05-07 17:29 36.59877 -11.83943 32954 ft 410 kts 226°
2026-05-07 17:29 36.56052 -11.89203 32959 ft 410 kts 226°
2026-05-07 17:30 36.52979 -11.93430 32963 ft 409 kts 226°
2026-05-07 17:30 36.49160 -11.98681 32962 ft 409 kts 226°
2026-05-07 17:31 36.45329 -12.03913 32960 ft 409 kts 226°
2026-05-07 17:31 36.41501 -12.09138 32992 ft 409 kts 226°
2026-05-07 17:32 36.37670 -12.14348 32991 ft 408 kts 226°
2026-05-07 17:32 36.34495 -12.18670 32959 ft 407 kts 226°
2026-05-07 17:33 36.30032 -12.24745 32965 ft 407 kts 226°
2026-05-07 17:33 36.26210 -12.29930 32964 ft 407 kts 226°
2026-05-07 17:34 36.22393 -12.35111 32955 ft 407 kts 226°
2026-05-07 17:34 36.18571 -12.40285 32957 ft 407 kts 226°
2026-05-07 17:35 36.14769 -12.45416 33004 ft 407 kts 225°
2026-05-07 17:35 36.10919 -12.50602 32965 ft 406 kts 225°
2026-05-07 17:36 36.07099 -12.55747 32960 ft 407 kts 225°
2026-05-07 17:36 36.03919 -12.60028 32963 ft 407 kts 225°
2026-05-07 17:37 35.99463 -12.66008 32967 ft 407 kts 225°
2026-05-07 17:37 35.95625 -12.71147 32968 ft 406 kts 225°
2026-05-07 17:38 35.91793 -12.76267 32967 ft 406 kts 225°
2026-05-07 17:38 35.88603 -12.80531 32983 ft 405 kts 225°
2026-05-07 17:39 35.84922 -12.85447 32965 ft 404 kts 225°
2026-05-07 17:39 35.81111 -12.90531 32965 ft 404 kts 225°
2026-05-07 17:40 35.77302 -12.95611 32963 ft 403 kts 225°
2026-05-07 17:40 35.74929 -12.98762 32964 ft 403 kts 225°
2026-05-07 17:41 35.71115 -13.03818 32964 ft 402 kts 225°
2026-05-07 17:41 35.67301 -13.08872 32960 ft 402 kts 225°
2026-05-07 17:42 35.63492 -13.13912 33003 ft 402 kts 225°
2026-05-07 17:42 35.59682 -13.18951 32982 ft 402 kts 225°
2026-05-07 17:43 35.55860 -13.23992 32967 ft 402 kts 225°
2026-05-07 17:43 35.52073 -13.28979 32963 ft 402 kts 225°
2026-05-07 17:44 35.48259 -13.33997 32943 ft 402 kts 225°
2026-05-07 17:44 35.44446 -13.39004 32950 ft 401 kts 225°
2026-05-07 17:45 35.40635 -13.44012 32960 ft 401 kts 225°
2026-05-07 17:45 35.36822 -13.49002 32949 ft 401 kts 225°
2026-05-07 17:46 35.33009 -13.53979 32991 ft 401 kts 225°
2026-05-07 17:46 35.29195 -13.58960 32968 ft 400 kts 225°
2026-05-07 17:47 35.25384 -13.63929 32967 ft 400 kts 225°
2026-05-07 17:47 35.21569 -13.68892 32967 ft 400 kts 225°
2026-05-07 17:48 35.17751 -13.73857 32967 ft 400 kts 225°
2026-05-07 17:48 35.13935 -13.78812 32967 ft 400 kts 225°
2026-05-07 17:49 35.10115 -13.83758 32964 ft 400 kts 225°
2026-05-07 17:49 35.06329 -13.88671 32998 ft 399 kts 224°
2026-05-07 17:50 35.02524 -13.93593 32987 ft 398 kts 224°
2026-05-07 17:50 34.98715 -13.98495 32975 ft 398 kts 224°
2026-05-07 17:51 34.94910 -14.03386 32967 ft 398 kts 224°
2026-05-07 17:51 34.91110 -14.08289 32933 ft 397 kts 225°
2026-05-07 17:52 34.87317 -14.13174 32948 ft 397 kts 225°
2026-05-07 17:52 34.83511 -14.18051 32953 ft 397 kts 225°
2026-05-07 17:53 34.79703 -14.22921 32999 ft 397 kts 224°
2026-05-07 17:53 34.75891 -14.27803 32961 ft 399 kts 224°
2026-05-07 17:54 34.72061 -14.32699 32952 ft 400 kts 224°
2026-05-07 17:54 34.68222 -14.37600 32950 ft 401 kts 224°
2026-05-07 17:55 34.64365 -14.42499 32955 ft 401 kts 224°
2026-05-07 17:55 34.60514 -14.47412 32959 ft 402 kts 225°
2026-05-07 17:56 34.56789 -14.52467 32965 ft 402 kts 226°
2026-05-07 17:56 34.52970 -14.57400 32966 ft 401 kts 224°
2026-05-07 17:57 34.49721 -14.61489 32973 ft 407 kts 225°
2026-05-07 17:57 34.45152 -14.67261 32976 ft 409 kts 225°
2026-05-07 17:58 34.41205 -14.72235 32981 ft 409 kts 225°
2026-05-07 17:58 34.37255 -14.77196 32977 ft 409 kts 225°
2026-05-07 17:59 34.33302 -14.82161 32954 ft 409 kts 225°
2026-05-07 17:59 34.29351 -14.87115 32962 ft 409 kts 225°
2026-05-07 18:00 34.27378 -14.89583 32762 ft 407 kts 225°
2026-05-07 18:00 34.25437 -14.92008 32492 ft 395 kts 225°
2026-05-07 18:00 34.23548 -14.94368 32258 ft 388 kts 225°
2026-05-07 18:00 34.21668 -14.96710 32002 ft 389 kts 225°
2026-05-07 18:01 34.19785 -14.99058 31746 ft 388 kts 225°
2026-05-07 18:01 34.17912 -15.01393 31512 ft 386 kts 225°
2026-05-07 18:01 34.16043 -15.03725 31266 ft 384 kts 225°
2026-05-07 18:01 34.14188 -15.06040 31010 ft 382 kts 225°
2026-05-07 18:02 34.10506 -15.10630 30526 ft 379 kts 225°
2026-05-07 18:02 34.08700 -15.12874 30293 ft 377 kts 225°
2026-05-07 18:02 34.06880 -15.15136 30047 ft 375 kts 225°
2026-05-07 18:03 34.05064 -15.17393 29773 ft 373 kts 225°
2026-05-07 18:03 34.03255 -15.19633 29464 ft 373 kts 226°
2026-05-07 18:03 34.01447 -15.21872 29191 ft 372 kts 226°
2026-05-07 18:03 33.99644 -15.24105 28914 ft 371 kts 226°
2026-05-07 18:04 33.97851 -15.26327 28644 ft 370 kts 226°
2026-05-07 18:04 33.96057 -15.28550 28370 ft 369 kts 226°
2026-05-07 18:04 33.94268 -15.30767 28104 ft 368 kts 226°
2026-05-07 18:04 33.92484 -15.32975 27838 ft 367 kts 226°
2026-05-07 18:05 33.90705 -15.35175 27575 ft 366 kts 226°
2026-05-07 18:05 33.88934 -15.37362 27313 ft 366 kts 227°
2026-05-07 18:05 33.87161 -15.39550 27058 ft 365 kts 227°
2026-05-07 18:05 33.85392 -15.41732 26801 ft 364 kts 227°
2026-05-07 18:06 33.83621 -15.43914 26544 ft 363 kts 227°
2026-05-07 18:06 33.81857 -15.46084 26283 ft 363 kts 227°
2026-05-07 18:06 33.80121 -15.48218 26049 ft 362 kts 227°
2026-05-07 18:06 33.78361 -15.50379 25808 ft 361 kts 227°
2026-05-07 18:07 33.76603 -15.52535 25557 ft 361 kts 227°
2026-05-07 18:07 33.74850 -15.54683 25313 ft 360 kts 227°
2026-05-07 18:07 33.73098 -15.56829 25041 ft 358 kts 227°
2026-05-07 18:07 33.71520 -15.58764 24823 ft 355 kts 228°
2026-05-07 18:08 33.70703 -15.59768 24719 ft 355 kts 228°
2026-05-07 18:08 33.68982 -15.61884 24481 ft 354 kts 228°
2026-05-07 18:08 33.67265 -15.63995 24246 ft 353 kts 228°
2026-05-07 18:08 33.65541 -15.66112 24020 ft 359 kts 230°
2026-05-07 18:09 33.63787 -15.68265 23793 ft 362 kts 230°
2026-05-07 18:09 33.62016 -15.70430 23554 ft 363 kts 230°
2026-05-07 18:09 33.60260 -15.72561 23283 ft 352 kts 230°
2026-05-07 18:09 33.58545 -15.74637 23007 ft 349 kts 230°
2026-05-07 18:10 33.56843 -15.76708 22732 ft 347 kts 230°
2026-05-07 18:10 33.55154 -15.78769 22456 ft 346 kts 230°
2026-05-07 18:10 33.53452 -15.80806 22193 ft 345 kts 229°
2026-05-07 18:10 33.51761 -15.82795 21925 ft 344 kts 229°
2026-05-07 18:11 33.50050 -15.84793 21520 ft 342 kts 229°
2026-05-07 18:11 33.48922 -15.86108 21204 ft 341 kts 229°
2026-05-07 18:11 33.46676 -15.88720 20464 ft 328 kts 229°
2026-05-07 18:11 33.45072 -15.90579 19973 ft 317 kts 229°
2026-05-07 18:12 33.43524 -15.92380 19319 ft 312 kts 230°
2026-05-07 18:12 33.41980 -15.94196 18091 ft 318 kts 230°
2026-05-07 18:12 33.40417 -15.96068 17752 ft 313 kts 230°
2026-05-07 18:12 33.38882 -15.97869 17506 ft 307 kts 230°
2026-05-07 18:13 33.37359 -15.99643 17130 ft 304 kts 230°
2026-05-07 18:13 33.35842 -16.01403 16732 ft 304 kts 230°
2026-05-07 18:13 33.34327 -16.03159 16352 ft 302 kts 230°
2026-05-07 18:13 33.32819 -16.04907 15988 ft 301 kts 230°
2026-05-07 18:14 33.31318 -16.06648 15631 ft 300 kts 230°
2026-05-07 18:14 33.29824 -16.08383 15281 ft 299 kts 230°
2026-05-07 18:14 33.28336 -16.10111 14938 ft 297 kts 230°
2026-05-07 18:14 33.26856 -16.11834 14598 ft 296 kts 230°
2026-05-07 18:15 33.25384 -16.13551 14264 ft 295 kts 230°
2026-05-07 18:15 33.23916 -16.15261 13931 ft 294 kts 230°
2026-05-07 18:15 33.22455 -16.16959 13573 ft 293 kts 230°
2026-05-07 18:15 33.20996 -16.18656 13193 ft 292 kts 229°
2026-05-07 18:16 33.19542 -16.20344 12846 ft 290 kts 229°
2026-05-07 18:16 33.18094 -16.22021 12489 ft 289 kts 229°
2026-05-07 18:16 33.16656 -16.23687 12133 ft 287 kts 229°
2026-05-07 18:16 33.15224 -16.25347 11780 ft 286 kts 229°
2026-05-07 18:17 33.13802 -16.26997 11427 ft 285 kts 229°
2026-05-07 18:17 33.12391 -16.28631 11171 ft 280 kts 229°
2026-05-07 18:17 33.11001 -16.30236 10862 ft 277 kts 229°
2026-05-07 18:17 33.09641 -16.31808 10564 ft 275 kts 229°
2026-05-07 18:18 33.08268 -16.33395 10252 ft 274 kts 229°
2026-05-07 18:18 33.06901 -16.34974 9922 ft 273 kts 229°
2026-05-07 18:18 33.05540 -16.36548 9519 ft 273 kts 229°
2026-05-07 18:18 33.04181 -16.38119 9141 ft 271 kts 228°
2026-05-07 18:19 33.02826 -16.39685 8768 ft 270 kts 228°
2026-05-07 18:19 33.01484 -16.41234 8405 ft 268 kts 228°
2026-05-07 18:19 33.00148 -16.42773 8050 ft 266 kts 228°
2026-05-07 18:19 32.98823 -16.44300 7670 ft 264 kts 228°
2026-05-07 18:20 32.97505 -16.45817 7299 ft 262 kts 227°
2026-05-07 18:20 32.96199 -16.47324 6931 ft 261 kts 227°
2026-05-07 18:20 32.94896 -16.48822 6551 ft 259 kts 227°
2026-05-07 18:20 32.93605 -16.50306 6185 ft 257 kts 227°
2026-05-07 18:21 32.92315 -16.51777 5776 ft 257 kts 226°
2026-05-07 18:21 32.90999 -16.53211 5351 ft 257 kts 224°
2026-05-07 18:21 32.89688 -16.54607 4936 ft 256 kts 224°
2026-05-07 18:21 32.88369 -16.55999 4701 ft 248 kts 224°
2026-05-07 18:22 32.87076 -16.57366 4295 ft 247 kts 223°
2026-05-07 18:22 32.86644 -16.57824 4222 ft 244 kts 223°
2026-05-07 18:22 32.84605 -16.59987 3867 ft 231 kts 224°
2026-05-07 18:22 32.83407 -16.61262 3510 ft 231 kts 223°
2026-05-07 18:23 32.82214 -16.62532 3172 ft 229 kts 224°
2026-05-07 18:23 32.81054 -16.63763 2843 ft 216 kts 224°
2026-05-07 18:23 32.79955 -16.64928 2584 ft 207 kts 224°
2026-05-07 18:23 32.78915 -16.66040 2352 ft 195 kts 224°
2026-05-07 18:24 32.77922 -16.67103 2123 ft 190 kts 225°
2026-05-07 18:24 32.76962 -16.68134 1911 ft 180 kts 224°
2026-05-07 18:24 32.76187 -16.69181 1813 ft 159 kts 234°
2026-05-07 18:24 32.75749 -16.69852 1689 ft 148 kts 233°
2026-05-07 18:25 32.75130 -16.70741 1564 ft 133 kts 234°
2026-05-07 18:25 32.74565 -16.71586 1464 ft 131 kts 235°
2026-05-07 18:25 32.73970 -16.72413 1295 ft 133 kts 232°
2026-05-07 18:25 32.73352 -16.73240 952 ft 132 kts 226°
2026-05-07 18:26 32.72749 -16.74002 868 ft 124 kts 225°
2026-05-07 18:26 32.72127 -16.74741 745 ft 127 kts 226°
2026-05-07 18:26 32.71491 -16.75469 519 ft 130 kts 225°
2026-05-07 18:26 32.70853 -16.76206 292 ft 129 kts 223°
2026-05-07 18:27 32.70219 -16.76941 181 ft 120 kts 224°
2026-05-07 18:27 32.69777 -16.77456 176 ft 48 kts 224°
2026-05-07 18:27 32.69582 -16.77683 176 ft 28 kts 225°
2026-05-07 18:27 32.69447 -16.77843 176 ft 27 kts 225°
2026-05-07 18:28 32.69344 -16.77961 176 ft 14 kts 207°
2026-05-07 18:28 32.69291 -16.77889 176 ft 12 kts 91°
2026-05-07 18:28 32.69326 -16.77814 176 ft 10 kts 47°
2026-05-07 18:28 32.69369 -16.77758 176 ft 9 kts 47°
2026-05-07 18:29 32.69398 -16.77714 176 ft 5 kts 85°
2026-05-07 18:29 32.69380 -16.77687 176 ft 4 kts 134°
2026-05-07 18:29 32.69365 -16.77671 176 ft 2 kts 140°
2026-05-07 18:29 32.69359 -16.77665 176 ft 1 kts 137°
2026-05-07 18:30 32.69357 -16.77663 176 ft 0 kts 137°